Weather observations for the past three days for
Fairfield Municipal Airport
Imperial (Metric)
Date Time (cdt) Wind (mph) Vis. (mi.) Weather Sky Cond. Temperature (ºF) Relative Humidity Wind Chill (°F) Heat Index (°F) Pressure Precipitation (in)
Air Dwpt 6 hour altimeter (in) sea level (mb) 1 hr 3 hr 6 hr
Max. Min.
22 17:35 Calm 0.00 Partly Cloudy SCT042 SCT048 80.6 60.8 51% 81 29.99 0.0
22 17:15 Calm 10.00 A Few Clouds FEW042 80.6 60.8 51% 81 29.99 0.0
22 16:55 Calm 10.00 Fair CLR 80.6 60.8 51% 81 29.99 0.0
22 16:35 Calm 10.00 Fair CLR 80.6 60.8 51% 81 30 0.0
22 16:15 Calm 10.00 Fair CLR 80.6 59 48% 81 30 0.0
22 15:55 NW 5 10.00 Fair CLR 82.4 60.8 48% 83 30.01 0.0
22 15:35 Calm 10.00 Fair CLR 80.6 59 48% 81 30.01 0.0
22 15:15 NE 5 10.00 Fair CLR 80.6 59 48% 81 30.02 0.0
22 14:55 NE 5 10.00 Fair CLR 80.6 60.8 51% 81 30.02 0.0
22 14:35 Calm 10.00 A Few Clouds FEW070 80.6 60.8 51% 81 30.03 0.0
22 14:15 N 5 10.00 A Few Clouds FEW070 80.6 60.8 51% 81 30.04 0.0
22 13:55 Vrbl 3 10.00 A Few Clouds FEW036 80.6 62.6 54% 82 30.04 0.0
22 13:35 Calm 10.00 A Few Clouds FEW036 80.6 60.8 51% 81 30.04 0.0
22 13:15 W 3 10.00 Fair CLR 78.8 60.8 54% 80 30.04 0.0
22 12:55 N 6 10.00 Fair CLR 78.8 64.4 61% 81 30.05 0.0
22 12:35 NE 5 10.00 Fair CLR 78.8 62.6 58% 80 30.05 0.0
22 12:15 Vrbl 3 10.00 A Few Clouds FEW036 FEW060 78.8 62.6 58% 80 30.06 0.0
22 11:55 Vrbl 3 10.00 Partly Cloudy SCT034 78.8 62.6 58% 80 30.07 0.0
22 11:35 Vrbl 3 10.00 A Few Clouds FEW032 77 62.6 61% 79 30.07 0.0
22 11:15 Calm 10.00 Fair CLR 77 62.6 61% 79 30.07 0.0
22 10:55 Calm 10.00 A Few Clouds FEW035 77 60.8 57% 79 30.08 0.0
22 10:35 Vrbl 5 10.00 Fair CLR 77 62.6 61% 79 30.08 0.0
22 10:15 NW 6 10.00 Fair CLR 75.2 62.6 65% 77 30.08 0.0
22 09:55 Vrbl 3 10.00 Fair CLR 75.2 62.6 65% 77 30.08 0.0
22 09:35 Vrbl 5 10.00 A Few Clouds FEW065 75.2 62.6 65% 77 30.08 0.0
22 09:15 W 5 10.00 Mostly Cloudy BKN065 73.4 66.2 78% 30.08 0.0
22 08:55 Calm 10.00 A Few Clouds FEW038 71.6 68 88% 30.08 0.0
22 08:35 Calm 10.00 Fair CLR 69.8 69.8 100% 30.08 0.0
22 08:15 Calm 9.00 Fair CLR 68 68 100% 30.07 0.0
22 07:55 Calm 9.00 Fair CLR 66.2 66.2 100% 30.07 0.0
22 07:35 Calm 8.00 Fair CLR 64.4 64.4 100% 30.06 0.0
22 07:15 NW 3 4.00 Fog/Mist CLR 64.4 64.4 100% 30.06 0.0
22 06:55 NW 5 3.00 Fog/Mist FEW040 62.6 62.6 100% 30.06 0.0
22 06:35 NW 5 3.00 Fog/Mist FEW040 60.8 60.8 100% 30.06 0.0
22 06:15 NW 5 3.00 Fog/Mist CLR 60.8 60.8 100% 30.06 0.0
22 05:55 NW 3 4.00 Fog/Mist FEW046 60.8 60.8 100% 30.06 0.0
22 05:35 W 3 6.00 Fog/Mist BKN044 59 59 100% 30.06 0.0
22 05:15 W 3 7.00 Overcast OVC043 59 59 100% 30.06 0.0
22 04:55 Calm 6.00 Fog/Mist OVC044 59 59 100% 30.06 0.0
22 04:35 Calm 9.00 Mostly Cloudy BKN043 BKN049 BKN075 60.8 60.8 100% 30.06 0.0
22 04:15 NW 5 6.00 Fog/Mist FEW036 BKN045 BKN055 60.8 60.8 100% 30.06 0.0
22 03:55 Calm 5.00 Fog/Mist FEW036 SCT042 BKN055 60.8 60.8 100% 30.06 0.0
22 03:35 Calm 7.00 Partly Cloudy FEW044 FEW050 SCT080 60.8 60.8 100% 30.06 0.0
22 03:15 W 5 5.00 Fog/Mist BKN050 BKN080 62.6 62.6 100% 30.06 0.0
22 02:55 W 3 6.00 Fog/Mist FEW044 OVC050 60.8 60.8 100% 30.06 0.0
22 02:35 W 3 8.00 Overcast FEW044 OVC050 60.8 60.8 100% 30.07 0.0
22 02:15 Calm 8.00 Mostly Cloudy BKN055 60.8 60.8 100% 30.07 0.0
22 01:55 Calm 10.00 Mostly Cloudy BKN055 BKN060 62.6 62.6 100% 30.08 0.0
22 01:35 Calm 10.00 Overcast FEW044 OVC055 62.6 62.6 100% 30.08 0.0
22 01:15 Calm 10.00 Overcast BKN055 OVC065 62.6 62.6 100% 30.09 0.0
22 00:55 Calm 10.00 Overcast FEW044 BKN055 OVC060 62.6 62.6 100% 30.08 0.0
22 00:35 Calm 10.00 Overcast FEW044 BKN055 OVC065 62.6 62.6 100% 30.09 0.0
22 00:15 Calm 10.00 Overcast SCT048 OVC060 64.4 64.4 100% 30.09 0.0
21 23:55 Calm 10.00 Mostly Cloudy SCT048 BKN060 64.4 64.4 100% 30.1 0.0
21 23:35 Calm 10.00 Mostly Cloudy SCT050 BKN060 64.4 64.4 100% 30.1 0.0
21 23:15 Calm 10.00 Partly Cloudy FEW050 SCT060 SCT070 64.4 64.4 100% 30.1 0.0
21 22:55 Calm 10.00 Partly Cloudy SCT060 SCT070 66.2 66.2 100% 30.1 0.0
21 22:35 Calm 10.00 Mostly Cloudy SCT050 BKN060 BKN100 66.2 66.2 100% 30.09 0.0
21 22:15 Calm 10.00 Mostly Cloudy FEW060 BKN100 66.2 66.2 100% 30.1 0.0
21 21:55 Calm 10.00 Mostly Cloudy BKN100 66.2 66.2 100% 30.1 0.0
21 21:35 Calm 10.00 Fair CLR 68 64.4 88% 30.09 0.0
21 21:15 Calm 10.00 Fair CLR 68 66.2 94% 30.09 0.0
21 20:55 Calm 10.00 Fair CLR 69.8 66.2 88% 30.08 0.0
21 20:35 Calm 10.00 Fair CLR 69.8 66.2 88% 30.08 0.0
21 20:15 N 3 10.00 Fair CLR 71.6 66.2 83% 30.08 0.0
21 19:55 NE 5 10.00 Fair CLR 73.4 64.4 74% 30.07 0.0
21 19:35 N 5 10.00 Fair CLR 75.2 62.6 65% 77 30.08 0.0
21 19:15 Calm 10.00 Fair CLR 77 60.8 57% 79 30.07 0.0
21 18:55 Calm 10.00 Fair CLR 77 59 54% 79 30.07 0.0
21 18:35 Calm 10.00 Fair CLR 77 55.4 47% 79 30.07 0.0
21 18:15 NW 3 10.00 A Few Clouds FEW100 77 55.4 47% 79 30.07 0.0
21 17:55 Calm 10.00 Fair CLR 77 57.2 51% 79 30.06 0.0
21 17:35 Calm 10.00 A Few Clouds FEW100 77 57.2 51% 79 30.07 0.0
21 17:15 NE 6 10.00 Partly Cloudy SCT100 77 59 54% 79 30.08 0.0
21 16:55 NE 7 10.00 Partly Cloudy SCT100 77 60.8 57% 79 30.09 0.0
21 16:35 Vrbl 5 10.00 Mostly Cloudy BKN095 77 60.8 57% 79 30.09 0.0
21 16:15 NE 8 10.00 Mostly Cloudy FEW075 BKN095 75.2 62.6 65% 77 30.1 0.0
21 15:55 N 7 10.00 Mostly Cloudy BKN090 77 60.8 57% 79 30.1 0.0
21 15:35 Calm 10.00 Overcast OVC090 77 59 54% 79 30.11 0.0
21 15:15 NE 5 10.00 Overcast OVC090 75.2 60.8 61% 77 30.11 0.0
21 14:55 N 6 10.00 Overcast OVC080 75.2 60.8 61% 77 30.12 0.0
21 14:35 NE 7 10.00 Overcast BKN075 OVC085 75.2 60.8 61% 77 30.13 0.0
21 14:15 N 6 10.00 Mostly Cloudy BKN080 BKN090 77 59 54% 79 30.13 0.0
21 13:55 N 7 10.00 Overcast FEW060 OVC080 75.2 60.8 61% 77 30.13 0.0
21 13:35 NE 8 10.00 Mostly Cloudy FEW040 SCT047 BKN075 75.2 60.8 61% 77 30.13 0.0
21 13:15 N 8 10.00 Mostly Cloudy SCT039 SCT046 BKN070 77 60.8 57% 79 30.13 0.0
21 12:55 Vrbl 7 10.00 A Few Clouds FEW070 77 57.2 51% 79 30.14 0.0
21 12:35 Vrbl 3 10.00 Fair CLR 77 59 54% 79 30.14 0.0
21 12:15 NE 6 10.00 A Few Clouds FEW029 FEW070 77 59 54% 79 30.14 0.0
21 11:55 NE 8 10.00 Mostly Cloudy BKN029 BKN035 BKN040 75.2 59 57% 78 30.15 0.0
21 11:35 Calm 10.00 Mostly Cloudy SCT029 BKN038 BKN055 75.2 60.8 61% 77 30.15 0.0
21 11:15 Vrbl 6 10.00 Fair CLR 75.2 62.6 65% 77 30.15 0.0
21 10:55 Calm 10.00 Fair CLR 75.2 60.8 61% 77 30.16 0.0
21 10:35 N 6 10.00 Fair CLR 73.4 60.8 65% 30.16 0.0
21 10:15 N 6 10.00 Fair CLR 73.4 60.8 65% 30.16 0.0
21 09:55 NW 6 10.00 Fair CLR 73.4 60.8 65% 30.15 0.0
21 09:35 NE 5 10.00 Fair CLR 71.6 59 65% 30.15 0.0
21 09:15 N 5 10.00 Fair CLR 71.6 60.8 69% 30.15 0.0
21 08:55 N 7 0.00 Fair CLR 69.8 60.8 73% 30.15 0.0
21 08:35 NE 7 10.00 Fair CLR 69.8 60.8 73% 30.15 0.0
21 08:15 NE 6 10.00 Fair CLR 68 64.4 88% 30.15 0.0
21 07:55 N 5 10.00 Fair CLR 68 68 100% 30.15 0.0
21 07:35 N 3 10.00 Fair CLR 66.2 66.2 100% 30.15 0.0
21 07:15 N 3 10.00 Fair CLR 64.4 64.4 100% 30.14 0.0
21 06:55 N 5 10.00 Fair CLR 64.4 64.4 100% 30.14 0.0
21 06:35 N 6 9.00 Fair CLR 62.6 62.6 100% 30.14 0.0
21 06:15 Calm 5.00 Fog/Mist CLR 62.6 62.6 100% 30.14 0.0
21 05:35 Calm 7.00 Mostly Cloudy BKN048 SCT055 BKN120 60.8 60.8 100% 30.13 0.0
21 05:15 Calm 5.00 Fog/Mist FEW041 OVC048 60.8 60.8 100% 30.13 0.0
21 04:55 N 5 8.00 Overcast OVC049 60.8 60.8 100% 30.13 0.0
21 04:35 N 3 10.00 Overcast OVC050 62.6 62.6 100% 30.13 0.0
21 04:15 N 6 10.00 Overcast BKN050 OVC065 62.6 62.6 100% 30.13 0.0
21 03:55 N 6 10.00 Mostly Cloudy FEW055 BKN070 62.6 62.6 100% 30.13 0.0
21 03:35 N 3 9.00 Partly Cloudy FEW050 SCT065 62.6 62.6 100% 30.13 0.0
21 03:15 Calm 10.00 A Few Clouds FEW060 FEW070 64.4 64.4 100% 30.13 0.0
21 02:55 Calm 10.00 Mostly Cloudy FEW055 SCT065 BKN075 64.4 64.4 100% 30.13 0.0
21 02:35 NW 5 10.00 Mostly Cloudy SCT055 BKN065 BKN075 64.4 64.4 100% 30.13 0.0
21 02:15 Calm 10.00 A Few Clouds FEW055 FEW070 64.4 64.4 100% 30.14 0.0
21 01:55 Calm 10.00 Mostly Cloudy FEW055 SCT065 BKN075 66.2 66.2 100% 30.14 0.0
21 01:35 N 5 10.00 Mostly Cloudy BKN070 66.2 66.2 100% 30.14 0.0
21 01:15 NE 6 10.00 Partly Cloudy FEW046 SCT070 66.2 66.2 100% 30.14 0.0
21 00:55 NE 6 10.00 Partly Cloudy FEW044 FEW050 SCT070 66.2 66.2 100% 30.14 0.0
21 00:35 NE 7 10.00 A Few Clouds FEW050 FEW060 64.4 64.4 100% 30.14 0.0
21 00:15 N 6 10.00 Partly Cloudy FEW044 SCT050 SCT065 66.2 66.2 100% 30.14 0.0
20 23:55 N 5 10.00 Mostly Cloudy FEW043 BKN050 BKN060 66.2 66.2 100% 30.14 0.0
20 23:35 N 7 10.00 Mostly Cloudy FEW044 BKN050 BKN100 66.2 66.2 100% 30.14 0.0
20 23:15 N 5 10.00 Mostly Cloudy SCT055 BKN100 66.2 66.2 100% 30.14 0.0
20 22:55 N 5 10.00 Mostly Cloudy FEW050 BKN100 66.2 66.2 100% 30.14 0.0
20 22:35 N 5 10.00 Overcast SCT050 SCT060 OVC100 66.2 66.2 100% 30.15 0.0
20 22:15 NW 5 10.00 Overcast FEW055 OVC100 66.2 66.2 100% 30.15 0.0
20 21:55 Calm 10.00 Overcast SCT047 SCT055 OVC100 66.2 66.2 100% 30.14 0.0
20 21:35 Calm 10.00 Overcast BKN046 BKN055 OVC100 68 66.2 94% 30.13 0.0
20 21:15 Calm 10.00 Partly Cloudy FEW046 SCT055 68 66.2 94% 30.12 0.0
20 20:55 N 3 10.00 A Few Clouds FEW110 68 64.4 88% 30.12 0.0
20 20:35 Calm 10.00 Mostly Cloudy BKN110 68 66.2 94% 30.11 0.0
20 20:15 Calm 10.00 Mostly Cloudy BKN110 69.8 66.2 88% 30.11 0.0
20 19:55 N 3 10.00 A Few Clouds FEW050 69.8 64.4 83% 30.11 0.0
20 19:35 Calm 10.00 Mostly Cloudy SCT050 BKN110 71.6 62.6 73% 30.11 0.0
20 19:15 Calm 10.00 Overcast SCT050 SCT065 OVC110 73.4 60.8 65% 30.11 0.0
20 18:55 Calm 10.00 Overcast OVC050 73.4 60.8 65% 30.11 0.0
20 18:35 NW 3 10.00 Mostly Cloudy BKN055 73.4 60.8 65% 30.11 0.0
20 18:15 Calm 10.00 Overcast SCT050 OVC060 73.4 60.8 65% 30.12 0.0
20 17:55 Calm 10.00 Overcast OVC050 73.4 60.8 65% 30.12 0.0
20 17:35 NW 3 10.00 Overcast OVC050 73.4 62.6 69% 30.12 0.0
20 17:15 NW 3 10.00 Overcast OVC050 73.4 60.8 65% 30.12 0.0
20 16:55 Calm 10.00 Overcast OVC048 73.4 62.6 69% 30.13 0.0
20 16:35 Calm 10.00 Overcast OVC049 73.4 62.6 69% 30.13 0.0
20 16:15 NW 5 10.00 Overcast OVC050 71.6 62.6 73% 30.13 0.0
20 15:55 NW 3 10.00 Overcast OVC050 71.6 62.6 73% 30.14 0.0
20 15:35 NW 5 10.00 Overcast OVC050 73.4 59 61% 30.14 0.0
20 15:15 Calm 10.00 Overcast OVC060 75.2 57.2 54% 78 30.14 0.0
20 14:55 Calm 10.00 Mostly Cloudy BKN060 BKN095 75.2 57.2 54% 78 30.14 0.0
20 14:35 Calm 10.00 Mostly Cloudy BKN060 BKN095 75.2 55.4 50% 78 30.14 0.0
20 14:15 SE 5 10.00 Mostly Cloudy FEW065 BKN095 75.2 59 57% 78 30.15 0.0
20 13:55 Vrbl 5 10.00 Partly Cloudy SCT095 73.4 59 61% 30.15 0.0
20 13:35 Calm 10.00 A Few Clouds FEW055 73.4 59 61% 30.15 0.0
20 13:15 Calm 10.00 Partly Cloudy SCT060 73.4 57.2 57% 30.16 0.0
20 12:55 Calm 10.00 Mostly Cloudy BKN055 71.6 59 65% 30.16 0.0
20 12:35 Calm 10.00 Mostly Cloudy BKN055 71.6 59 65% 30.16 0.0
20 12:15 Calm 10.00 A Few Clouds FEW055 71.6 59 65% 30.16 0.0
20 11:55 Calm 10.00 Partly Cloudy SCT055 69.8 59 69% 30.16 0.0
20 11:35 N 5 10.00 Mostly Cloudy BKN050 69.8 59 69% 30.15 0.0
20 11:15 Calm 10.00 Mostly Cloudy BKN047 69.8 59 69% 30.16 0.0
20 10:55 NW 3 10.00 Mostly Cloudy BKN048 BKN055 69.8 59 69% 30.16 0.0
20 10:35 NW 5 10.00 Mostly Cloudy BKN050 69.8 59 69% 30.16 0.0
20 10:15 Calm 10.00 Partly Cloudy SCT050 SCT120 68 59 73% 30.15 0.0
20 09:55 W 3 10.00 A Few Clouds FEW042 FEW049 FEW120 68 59 73% 30.15 0.0
20 09:35 NW 5 0.00 A Few Clouds FEW041 FEW055 68 59 73% 30.15 0.0
20 09:15 W 3 10.00 Mostly Cloudy BKN055 66.2 60.8 83% 30.15 0.0
20 08:55 Calm 10.00 Overcast OVC050 66.2 62.6 88% 30.15 0.0
20 08:35 Calm 10.00 Overcast OVC050 66.2 60.8 83% 30.15 0.0
20 08:15 Calm 10.00 Overcast OVC055 66.2 60.8 83% 30.15 0.0
20 07:55 Calm 10.00 Mostly Cloudy BKN050 64.4 59 83% 30.14 0.0
20 07:35 Calm 10.00 Partly Cloudy SCT055 64.4 59 83% 30.14 0.0
20 07:15 Calm 10.00 Fair CLR 64.4 60.8 88% 30.13 0.0
20 06:55 Calm 10.00 Fair CLR 62.6 60.8 94% 30.13 0.0
20 06:35 Calm 10.00 Fair CLR 62.6 59 88% 30.13 0.0
20 06:15 Calm 10.00 Partly Cloudy SCT055 62.6 60.8 94% 30.13 0.0
20 05:55 Calm 10.00 Mostly Cloudy BKN055 62.6 60.8 94% 30.12 0.0
20 05:35 Calm 10.00 Overcast OVC055 62.6 60.8 94% 30.12 0.0
20 05:15 Calm 10.00 Overcast OVC050 62.6 60.8 94% 30.12 0.0
20 04:35 Calm 10.00 Overcast OVC055 64.4 57.2 78% 30.11 0.0
20 04:15 Calm 10.00 Overcast OVC050 64.4 57.2 78% 30.11 0.0
20 03:55 S 3 10.00 Overcast OVC055 64.4 57.2 78% 30.11 0.0
20 03:35 S 3 10.00 Overcast OVC055 64.4 57.2 78% 30.11 0.0
20 03:15 S 5 10.00 Overcast OVC050 64.4 57.2 78% 30.11 0.0
20 02:55 S 5 10.00 Overcast OVC050 64.4 57.2 78% 30.1 0.0
20 02:35 S 5 10.00 Overcast OVC050 64.4 57.2 78% 30.1 0.0
20 02:15 SE 6 10.00 Overcast OVC050 62.6 57.2 83% 30.1 0.0
20 01:55 SE 6 10.00 Overcast OVC050 62.6 57.2 83% 30.1 0.0
20 01:35 SE 6 10.00 Overcast OVC050 62.6 57.2 83% 30.11 0.0
20 01:15 SE 6 10.00 Overcast OVC050 62.6 57.2 83% 30.11 0.0
20 00:55 SE 6 10.00 Mostly Cloudy BKN050 62.6 57.2 83% 30.11 0.0
20 00:35 SE 6 10.00 Mostly Cloudy BKN050 62.6 57.2 83% 30.12 0.0
20 00:15 SE 6 10.00 Partly Cloudy SCT050 62.6 57.2 83% 30.12 0.0
19 23:55 SE 5 0.00 Mostly Cloudy BKN050 62.6 57.2 83% 30.12 0.0
19 23:35 SE 3 10.00 Partly Cloudy SCT050 64.4 57.2 78% 30.12 0.0
19 23:15 SE 5 10.00 Partly Cloudy SCT050 62.6 57.2 83% 30.12 0.0
19 22:55 SE 6 10.00 Partly Cloudy SCT050 SCT055 62.6 57.2 83% 30.11 0.0
19 22:35 SE 5 10.00 A Few Clouds FEW050 62.6 59 88% 30.12 0.0
19 22:15 Calm 10.00 A Few Clouds FEW055 62.6 57.2 83% 30.12 0.0
19 21:55 SE 3 10.00 Partly Cloudy SCT050 SCT055 64.4 57.2 78% 30.12 0.0
19 21:35 SE 5 10.00 A Few Clouds FEW050 64.4 59 83% 30.11 0.0
19 21:15 E 5 10.00 A Few Clouds FEW055 66.2 59 78% 30.11 0.0
19 20:55 E 3 10.00 Fair CLR 66.2 59 78% 30.1 0.0
19 20:35 E 3 10.00 Fair CLR 68 59 73% 30.11 0.0
19 20:15 SE 3 10.00 Fair CLR 68 59 73% 30.11 0.0
19 19:55 Calm 10.00 Fair CLR 69.8 57.2 64% 30.11 0.0
19 19:35 E 6 10.00 Fair CLR 69.8 57.2 64% 30.11 0.0
19 19:15 E 5 10.00 Fair CLR 71.6 55.4 57% 30.1 0.0
19 18:55 E 6 10.00 Fair CLR 75.2 53.6 47% 78 30.1 0.0
19 18:35 E 5 10.00 A Few Clouds FEW050 75.2 53.6 47% 78 30.11 0.0
19 18:15 E 5 10.00 Partly Cloudy SCT050 75.2 55.4 50% 78 30.11 0.0
Date Time (cdt) Wind (mph) Vis. (mi.) Weather Sky Cond. Air Dwpt Max. Min. Relative Humidity Wind Chill (°F) Heat Index (°F) altimeter (in) sea level (mb) 1 hr 3 hr 6 hr
6 hour
Temperature (ºF) Pressure Precipitation (in)